Weather in Bratoliubivka

Ukraine / Kirovohrad Region     48°18′15″N   31°11′30″E
temp.,
°C
wind,
m/s
gust,
m/s
humid.,
%
clouds,
%
prec.,
mm/h
press.,
hPa
HPBL,
m
27 january, thu
thu2723:00−4n4683100 0.1 1021338
02:00−5nnw1293100 0.1 102156
05:00−8s1194100 0.0 102110
08:00−7sw249497 0.0 102192
11:00−3sw469199 0.1 1020383
14:00−1sw579397 0.4 1018506
17:00−2sw499877 0.3 1017254
20:00−1wsw4891100 0.3 1017396
28 january, fri
fri2823:00−2sw4997100 0.1 1016247
02:00−2ssw51188100 0.3 1015298
05:00−3ssw51090100 0.0 1013233
08:00−3ssw5991100 0.0 1012233
11:000wsw5109699 0.4 1012464
14:00+2wsw51185100 0.4 1010651
17:00−1sw511875 0.0 1010217
20:00−1sw61495100 0.0 1010429
29 january, sat
sat2923:00+1wsw81390100 0.1 1010774
02:000w81595100 0.3 1010730
05:00−1wnw7149594 0.2 1012768
08:00−1wnw7138991 0.3 1014839
11:00−1wnw71188100 0.1 10171030
14:00−1nw71081100 0.3 10181122
17:00−2wnw61080100 0.1 1019611
20:00−3w488495 0.1 1019316
30 january, sun
sun3023:00−5sw489299 0.0 1018226
02:00−4sw61288100 0.0 1015418
05:00−3ssw81778100 0.0 1010507
08:00−3ssw81682100 0.1 1006535
11:00−2sw81796100 1.9 1004587
14:00+1sw81694100 2.4 1001838
17:00+1wsw71394100 0.1 1000552
20:00−1wsw5138938 0.1 999382
31 january, mon
mon3123:000w71485100 0.0 1000784
02:00−1wnw9158052 0.1 1002824
05:00−1wnw9158258 0.4 10021112
08:00−3w8158799 0.5 1006890
11:00−1wnw9137996 0.1 10071379
14:00−2wnw91378100 0.4 10081370
17:00−2wnw8147798 0.1 10091021
20:00−3wnw81579100 0.1 1011831